Saipan, MP

6:36 AM ChST on June 29, 2017 (GMT +1000)
Saipan International

Weather History for PGSN - February, 2013

Change the Weather History Date:

Tuesday, February 12, 2013

  Actual Average Record
Temperature  
Mean Temperature 78 °F -  
Max Temperature 82 °F 82 °F 84 °F (1998)
Min Temperature 75 °F 74 °F 73 °F (2008)
Cooling Degree Days 14    
Growing Degree Days 28 (Base 50)    
Moisture  
Dew Point 73 °F    
Average Humidity 86    
Maximum Humidity 94    
Minimum Humidity 74    
Precipitation  
Precipitation 0.40 in - - ()
Sea Level Pressure  
Sea Level Pressure 29.99 in    
Wind  
Wind Speed 19 mph (ENE)    
Max Wind Speed 28 mph    
Max Gust Speed 37 mph    
Visibility 7 miles    
Events Rain    
Averages and records for this station are not official NWS values.
T = Trace of Precipitation, MM = Missing Value Source: NWS Daily Summary

Daily Weather History Graph

Daily Weather History Graph

Search for Another Location

Airport or City:

Trip Planner

Search our weather history database for the weather conditions in past years. The results will help you decide how hot, cold, wet, or windy it might be!

Date:

Astronomy

Feb. 12, 2013 Rise Set
Actual Time 6:42 AM ChST 6:19 PM ChST
Civil Twilight 6:20 AM ChST 6:41 PM ChST
Nautical Twilight 5:55 AM ChST 7:07 PM ChST
Astronomical Twilight 5:30 AM ChST 7:32 PM ChST
Moon 7:45 AM ChST (2/12) 8:07 PM ChST (2/12)
Length of Visible Light 12h 20m
Length of Day
11h 36m
Waxing Crescent, 4% of the Moon is Illuminated
Feb 12
Waxing Crescent
Feb 18
First Quarter
Feb 26
Full
Mar 5
Last Quarter
Mar 12
New

Hourly Weather History & Observations

Time (ChST) Temp. Heat Index Dew Point Humidity Pressure Visibility Wind Dir Wind Speed Gust Speed Precip Events Conditions
12:54 AM 79.0 °F - 70.0 °F 74% 30.03 in 10.0 mi ENE 18.4 mph - N/A   Overcast
1:54 AM 77.0 °F - 73.0 °F 88% 30.01 in 10.0 mi NE 15.0 mph 21.9 mph N/A   Mostly Cloudy
2:51 AM 78.8 °F - 71.6 °F 78% 29.94 in 10.0 mi NE 16.1 mph 24.2 mph N/A   Mostly Cloudy
2:54 AM 78.1 °F - 73.0 °F 84% 30.00 in 10.0 mi NE 18.4 mph - N/A   Mostly Cloudy
3:06 AM 78.8 °F - 73.4 °F 83% 29.93 in 10.0 mi NE 19.6 mph 25.3 mph N/A   Mostly Cloudy
3:54 AM 78.1 °F - 72.0 °F 81% 29.99 in 10.0 mi NE 16.1 mph 23.0 mph N/A   Clear
4:54 AM 78.1 °F - 72.0 °F 81% 29.98 in 10.0 mi NE 19.6 mph - N/A   Partly Cloudy
5:54 AM 79.0 °F - 72.0 °F 79% 30.00 in 10.0 mi NE 12.7 mph 24.2 mph N/A   Scattered Clouds
6:28 AM 77.0 °F - 73.4 °F 89% 29.95 in 8.0 mi ENE 18.4 mph 31.1 mph 0.00 in Rain Light Rain
6:54 AM 77.0 °F - 73.9 °F 90% 30.02 in 4.0 mi ENE 18.4 mph 27.6 mph 0.01 in Rain Light Rain
7:20 AM 75.2 °F - 73.4 °F 94% 29.96 in 3.0 mi ENE 20.7 mph 29.9 mph 0.00 in Rain Rain
7:54 AM 75.9 °F - 73.9 °F 94% 30.03 in 5.0 mi NE 19.6 mph 26.5 mph 0.01 in Rain Light Rain
8:50 AM 75.2 °F - 73.4 °F 94% 29.98 in 2.0 mi ENE 20.7 mph 28.8 mph 0.24 in Rain Light Rain
8:54 AM 75.9 °F - 73.9 °F 94% 30.05 in 2.0 mi ENE 25.3 mph 32.2 mph 0.24 in Rain Light Rain
9:01 AM 77.0 °F - 75.2 °F 94% 29.98 in 4.0 mi ENE 20.7 mph 32.2 mph 0.00 in Rain Light Rain
9:19 AM 77.0 °F - 75.2 °F 94% 29.99 in 1.0 mi East 24.2 mph 36.8 mph 0.01 in Rain Rain
9:27 AM 77.0 °F - 75.2 °F 94% 30.00 in 2.0 mi East 24.2 mph 33.4 mph 0.01 in Rain Rain
9:44 AM 77.0 °F - 75.2 °F 94% 30.00 in 7.0 mi East 24.2 mph 33.4 mph 0.01 in Rain Light Rain
9:54 AM 77.0 °F - 75.0 °F 94% 30.06 in 7.0 mi ENE 20.7 mph 31.1 mph 0.01 in Rain Light Rain
10:54 AM 77.0 °F - 73.0 °F 88% 30.05 in 3.0 mi ENE 17.3 mph 27.6 mph 0.00 in Rain Light Rain
11:03 AM 78.8 °F - 75.2 °F 89% 29.98 in 4.0 mi East 17.3 mph 28.8 mph 0.00 in Rain Rain
11:20 AM 77.0 °F - 75.2 °F 94% 29.99 in 1.0 mi East 21.9 mph 28.8 mph 0.01 in Rain Heavy Rain
11:54 AM 77.0 °F - 75.0 °F 94% 30.04 in 1.0 mi East 19.6 mph 27.6 mph 0.09 in Rain Heavy Rain
11:56 AM 77.0 °F - 73.4 °F 89% 29.97 in 2.0 mi East 18.4 mph 27.6 mph 0.00 in Rain Heavy Rain
12:01 PM 77.0 °F - 73.4 °F 89% 29.97 in 3.0 mi East 17.3 mph 27.6 mph 0.01 in Rain Heavy Rain
12:54 PM 77.0 °F - 73.9 °F 90% 30.00 in 10.0 mi ENE 19.6 mph 29.9 mph 0.01 in Rain Heavy Rain
1:01 PM 80.6 °F 85.4 °F 73.4 °F 79% 29.93 in 10.0 mi ENE 19.6 mph - 0.00 in Rain Heavy Rain
1:54 PM 82.0 °F 88.6 °F 75.0 °F 79% 29.98 in 10.0 mi ENE 25.3 mph 32.2 mph 0.00 in Rain Heavy Rain
2:54 PM 78.1 °F - 75.0 °F 90% 29.96 in 5.0 mi East 25.3 mph 31.1 mph 0.01 in Rain Light Rain
3:54 PM 80.1 °F 84.5 °F 73.9 °F 81% 29.96 in 10.0 mi ENE 21.9 mph 27.6 mph 0.00 in Rain Light Rain
4:04 PM 78.8 °F - 73.4 °F 83% 29.89 in 8.0 mi East 16.1 mph 26.5 mph 0.00 in Rain Light Rain
4:16 PM 78.8 °F - 73.4 °F 83% 29.89 in 10.0 mi East 19.6 mph - 0.00 in Rain Light Rain
4:54 PM 75.9 °F - 73.0 °F 91% 29.96 in 7.0 mi East 27.6 mph 33.4 mph 0.02 in Rain Light Rain
5:54 PM 78.1 °F - 69.1 °F 74% 29.97 in 10.0 mi East 18.4 mph 24.2 mph 0.00 in   Mostly Cloudy
6:54 PM 78.1 °F - 73.0 °F 84% 29.99 in 10.0 mi East 17.3 mph 26.5 mph 0.00 in   Mostly Cloudy
7:54 PM 78.1 °F - 70.0 °F 76% 30.00 in 10.0 mi East 17.3 mph 25.3 mph 0.00 in   Overcast
8:54 PM 79.0 °F - 72.0 °F 79% 30.02 in 10.0 mi East 18.4 mph 27.6 mph N/A   Mostly Cloudy
9:54 PM 78.1 °F - 73.0 °F 84% 30.02 in 10.0 mi ENE 20.7 mph - N/A   Overcast
10:54 PM 77.0 °F - 72.0 °F 84% 30.02 in 10.0 mi East 17.3 mph 28.8 mph N/A   Overcast
11:54 PM 77.0 °F - 71.1 °F 82% 30.02 in 10.0 mi East 19.6 mph 28.8 mph N/A   Mostly Cloudy